Saint Cloud, MN

9:35 PM CST on December 07, 2016 (GMT -0600)
Saint Cloud Regional

Weather History for KSTC - April, 2014

Change the Weather History Date:

Wednesday, April 16, 2014

  Actual Average Record
Temperature  
Mean Temperature 31 °F 45 °F  
Max Temperature 32 °F 57 °F 86 °F (1913)
Min Temperature 29 °F 33 °F 16 °F (1907)
Degree Days  
Heating Degree Days 34 20  
Month to date heating degree days 423 384  
Since 1 July heating degree days 8939 7934  
Cooling Degree Days 0 0  
Month to date cooling degree days 0 0  
Year to date cooling degree days 0 0  
Moisture  
Dew Point 25 °F    
Average Humidity 67    
Maximum Humidity 92    
Minimum Humidity 41    
Precipitation  
Precipitation 0.98 in 0.09 in 3.26 in (2003)
Month to date precipitation 1.55 1.23  
Year to date precipitation 5.26 4.02  
Snow  
Snow 8.50 in 0.10 in 8.50 in (2014)
Month to date snowfall 12.0 2.1  
Since 1 July snowfall 75.5 44.8  
Snow Depth T in    
Sea Level Pressure  
Sea Level Pressure 30.01 in    
Wind  
Wind Speed 13 mph (ENE)    
Max Wind Speed 18 mph    
Max Gust Speed 28 mph    
Visibility 3 miles    
Events Fog , Snow    
T = Trace of Precipitation, MM = Missing Value Source: NWS Daily Summary

Daily Weather History Graph

Daily Weather History Graph

Search for Another Location

Airport or City:

Trip Planner

Search our weather history database for the weather conditions in past years. The results will help you decide how hot, cold, wet, or windy it might be!

Date:

Astronomy

Apr. 16, 2014 Rise Set
Actual Time 6:28 AM CDT 8:03 PM CDT
Civil Twilight 5:57 AM CDT 8:35 PM CDT
Nautical Twilight 5:20 AM CDT 9:13 PM CDT
Astronomical Twilight 4:39 AM CDT 9:53 PM CDT
Moon 9:53 PM CDT (4/16) 7:13 AM CDT (4/16)
Length of Visible Light 14h 37m
Length of Day
13h 35m
Full, 98% of the Moon is Illuminated
Apr 16
Full
Apr 22
Last Quarter
Apr 29
New
May 6
First Quarter
May 14
Full

Hourly Weather History & Observations

Time (CDT) Temp. Windchill Dew Point Humidity Pressure Visibility Wind Dir Wind Speed Gust Speed Precip Events Conditions
12:53 AM 33.1 °F 24.9 °F 12.0 °F 42% 30.10 in 10.0 mi East 10.4 mph - N/A   Overcast
1:53 AM 30.9 °F 22.8 °F 19.0 °F 61% 30.09 in 10.0 mi East 9.2 mph - N/A   Overcast
2:44 AM 28.4 °F 19.1 °F 23.0 °F 80% 30.01 in 2.5 mi East 10.4 mph - 0.00 in Snow Light Snow
2:53 AM 28.9 °F 19.2 °F 24.1 °F 82% 30.07 in 1.8 mi East 11.5 mph 17.3 mph 0.00 in Snow Light Snow
3:12 AM 28.4 °F 18.5 °F 24.8 °F 86% 30.00 in 2.0 mi East 11.5 mph - 0.01 in Snow Light Snow
3:39 AM 28.4 °F 18.0 °F 24.8 °F 86% 29.99 in 2.0 mi East 12.7 mph 17.3 mph 0.01 in Snow Light Snow
3:53 AM 28.9 °F 19.8 °F 25.0 °F 85% 30.06 in 2.0 mi East 10.4 mph - 0.01 in Snow Light Snow
4:00 AM 28.4 °F 18.5 °F 24.8 °F 86% 29.99 in 3.0 mi East 11.5 mph - 0.00 in Snow Light Snow
4:53 AM 28.9 °F 18.6 °F 24.1 °F 82% 30.03 in 10.0 mi East 12.7 mph 24.2 mph 0.00 in   Overcast
5:13 AM 28.4 °F 16.6 °F 24.8 °F 86% 29.96 in 10.0 mi East 16.1 mph 23.0 mph N/A   Overcast
5:29 AM 28.4 °F 17.5 °F 24.8 °F 86% 29.96 in 10.0 mi East 13.8 mph 23.0 mph N/A   Overcast
5:53 AM 28.9 °F 20.4 °F 24.1 °F 82% 30.02 in 10.0 mi East 9.2 mph 19.6 mph N/A   Overcast
6:53 AM 30.0 °F 18.7 °F 23.0 °F 75% 30.02 in 10.0 mi East 16.1 mph 24.2 mph N/A   Overcast
7:53 AM 30.0 °F 19.1 °F 21.9 °F 72% 30.03 in 10.0 mi East 15.0 mph 24.2 mph N/A   Overcast
8:51 AM 30.2 °F 19.8 °F 24.8 °F 80% 29.96 in 2.0 mi East 13.8 mph 19.6 mph 0.00 in Snow Light Snow
8:53 AM 30.0 °F 19.1 °F 24.1 °F 79% 30.02 in 2.0 mi East 15.0 mph 19.6 mph 0.00 in Snow Light Snow
9:01 AM 30.2 °F 20.2 °F 24.8 °F 80% 29.96 in 1.8 mi East 12.7 mph 21.9 mph 0.00 in Snow Light Snow
9:14 AM 28.4 °F 18.0 °F 24.8 °F 86% 29.95 in 1.2 mi East 12.7 mph - 0.01 in Snow Light Snow
9:30 AM 28.4 °F 18.0 °F 24.8 °F 86% 29.94 in 0.5 mi East 12.7 mph 20.7 mph 0.01 in Fog , Snow Snow
9:32 AM 28.4 °F 17.0 °F 24.8 °F 86% 29.95 in 0.2 mi East 15.0 mph 21.9 mph 0.01 in Fog , Snow Snow
9:53 AM 28.9 °F 17.7 °F 25.0 °F 85% 30.01 in 0.5 mi East 15.0 mph 20.7 mph 0.04 in Fog , Snow Snow
10:11 AM 28.4 °F 18.5 °F 24.8 °F 86% 29.94 in 0.2 mi East 11.5 mph 19.6 mph 0.01 in Fog , Snow Snow
10:53 AM 28.9 °F 19.8 °F 26.1 °F 89% 29.99 in 0.2 mi ENE 10.4 mph 20.7 mph 0.07 in Fog , Snow Snow
11:43 AM 28.4 °F 18.0 °F 26.6 °F 93% 29.93 in 0.2 mi ENE 12.7 mph 19.6 mph 0.09 in Fog , Snow Heavy Snow
11:53 AM 28.9 °F 19.2 °F 26.1 °F 89% 30.00 in 0.2 mi ENE 11.5 mph 21.9 mph 0.11 in Fog , Snow Heavy Snow
12:16 PM 28.4 °F 17.5 °F 26.6 °F 93% 29.93 in 0.2 mi ENE 13.8 mph 20.7 mph 0.05 in Fog , Snow Snow
12:53 PM 28.4 °F 17.5 °F 26.6 °F 93% 29.92 in 0.2 mi ENE 13.8 mph 21.9 mph N/A Fog , Snow Snow
1:53 PM 28.9 °F 18.6 °F 26.1 °F 89% 30.01 in 0.2 mi ENE 12.7 mph 23.0 mph 0.10 in Fog , Snow Snow
2:53 PM 28.9 °F 18.2 °F 26.1 °F 89% 30.01 in 0.2 mi NE 13.8 mph 20.7 mph 0.11 in Fog , Snow Snow
3:53 PM 28.9 °F 18.2 °F 26.1 °F 89% 30.01 in 0.2 mi NE 13.8 mph - 0.13 in Fog , Snow Snow
4:53 PM 28.9 °F 18.2 °F 26.1 °F 89% 30.02 in 0.2 mi NE 13.8 mph 24.2 mph 0.13 in Fog , Snow Snow
5:40 PM 30.2 °F 18.9 °F 26.6 °F 86% 29.97 in 0.5 mi NE 16.1 mph 24.2 mph 0.09 in Fog , Snow Snow
5:53 PM 30.0 °F 19.5 °F 26.1 °F 85% 30.03 in 0.5 mi NE 13.8 mph 20.7 mph 0.10 in Fog , Snow Light Snow
6:53 PM 28.9 °F 17.7 °F 26.1 °F 89% 30.04 in 0.5 mi NE 15.0 mph 23.0 mph 0.02 in Fog , Snow Light Snow
7:20 PM 28.4 °F 16.6 °F 24.8 °F 86% 29.99 in 1.0 mi NNE 16.1 mph 21.9 mph 0.01 in Snow Light Snow
7:53 PM 28.9 °F 16.5 °F 25.0 °F 85% 30.07 in 1.2 mi NNE 18.4 mph 24.2 mph 0.02 in Snow Light Snow
8:04 PM 28.4 °F 17.0 °F 24.8 °F 86% 30.01 in 0.5 mi North 15.0 mph 21.9 mph 0.00 in Fog , Snow Snow
8:21 PM 28.4 °F 17.0 °F 24.8 °F 86% 30.01 in 0.8 mi North 15.0 mph 21.9 mph 0.01 in Snow Light Snow
8:30 PM 28.4 °F 18.0 °F 24.8 °F 86% 30.01 in 1.0 mi NNE 12.7 mph 21.9 mph 0.02 in Snow Light Snow
8:45 PM 28.4 °F 16.6 °F 24.8 °F 86% 30.02 in 1.2 mi NNE 16.1 mph 24.2 mph 0.03 in Snow Light Snow
8:53 PM 28.9 °F 18.6 °F 25.0 °F 85% 30.09 in 1.5 mi NNE 12.7 mph 24.2 mph 0.03 in Snow Light Snow
9:09 PM 28.4 °F 17.5 °F 24.8 °F 86% 30.02 in 2.5 mi North 13.8 mph 23.0 mph 0.00 in Snow Light Snow
9:20 PM 28.4 °F 17.5 °F 24.8 °F 86% 30.03 in 3.0 mi NNE 13.8 mph 20.7 mph 0.00 in Snow Light Snow
9:53 PM 28.9 °F 18.2 °F 24.1 °F 82% 30.11 in 5.0 mi NNE 13.8 mph 20.7 mph 0.00 in Snow Light Snow
10:20 PM 28.4 °F 16.2 °F 24.8 °F 86% 30.04 in 4.0 mi North 17.3 mph 23.0 mph 0.00 in Snow Light Snow
10:53 PM 28.9 °F 18.6 °F 23.0 °F 78% 30.12 in 9.0 mi NNE 12.7 mph 24.2 mph 0.00 in   Overcast
11:53 PM 28.9 °F 18.2 °F 23.0 °F 78% 30.12 in 10.0 mi North 13.8 mph 21.9 mph N/A   Overcast